AirNav   Everest Fuels
 
 1036 users online  

W17 Raleigh East Airport
Knightdale, North Carolina, USA

GOING TO KNIGHTDALE?


FAA INFORMATION EFFECTIVE 18 JUNE 2020

Location

FAA Identifier: W17
Lat/Long: 35-47-51.8000N 078-26-13.2350W
35-47.863333N 078-26.220583W
35.7977222,-78.4370097
(estimated)
Elevation: 313 ft. / 95.4 m (surveyed)
Variation: 07W (1985)
From city: 2 miles E of KNIGHTDALE, NC
Time zone: UTC -4 (UTC -5 during Standard Time)
Zip code: 27545

Airport Operations

Airport use: Open to the public
Activation date: 05/1964
Control tower: no
ARTCC: WASHINGTON CENTER
FSS: RALEIGH FLIGHT SERVICE STATION
NOTAMs facility: RDU (NOTAM-D service available)
Attendance: IREG
Wind indicator: yes
Segmented circle: no
Lights: SS-SR
Beacon: white-green (lighted land airport)
Operates sunset to sunrise.

Airport Communications

CTAF/UNICOM: 122.8
WX AWOS-3 at LHZ (14 nm N): 118.325 (919-497-0810)
WX AWOS-3 at JNX (16 nm S): 120.225 (919-934-3851)
WX ASOS at RDU (18 nm W): PHONE 919-840-0816

Nearby radio navigation aids

VOR radial/distance  VOR name  Freq  Var
RDUr114/17.4RALEIGH/DURHAM VORTAC117.2009W
TYIr258/37.2TAR RIVER VORTAC117.8005W

 
NDB name  Hdg/Dist  Freq  Var  ID
HARNETT036/24.841708WHQT .... --.- -
HUNTSBORO173/31.527109WHXO .... -..- ---

Airport Services

Parking: tiedowns
Airframe service: NONE
Powerplant service: NONE

Runway Information

Runway 1/19

Dimensions: 3000 x 36 ft. / 914 x 11 m
Surface: asphalt, in fair condition
ROLLING PAVEMENT AND RY CRACKS
Weight bearing capacity: 
Single wheel: 4.0
Runway edge lights: non-standard
NSTD LIRL; THLD LGTS ARE WHITE; RY 19 LGTD THLD RELOCATED 70 FT; 2930 FT OF RY 01/19 USBL AT NIGHT; EDGE LGTS ARE 17 FT FM RY EDGE.
Runway edge markings: RY 01/19 NSTD SMALL MARKINGS.
RUNWAY 1  RUNWAY 19
Traffic pattern: leftleft
Markings: NSTD, in fair conditionNSTD, in fair condition
Obstructions: 23 ft. trees, 232 ft. from runway, 67 ft. left of centerline, 1:1 slope to clear
26 FT TREES 0-200 FROM THR OFFSET 63 FT LEFT OF CNTRLN.
14 ft. bldg, 239 ft. from runway, 52 ft. left of centerline, 2:1 slope to clear
14 FT BLDG 100-200 FT FM THR OFFSET 54 FT LEFT OF CNTRLN

Airport Ownership and Management from official FAA records

Ownership: Privately-owned
Owner: J. T. KNOTT JR.
933 THREE SISTERS ROAD
KNIGHTDALE, NC 27545
Phone 919-749-8851
Manager: RICK PAHNKE
11236 IVY CREEK TRAIL
WAKE FOREST, NC 27587
Phone 919-614-0909

Airport Operational Statistics

Aircraft based on the field: 33
Single engine airplanes: 30
Multi engine airplanes: 1
Ultralights: 2
    
Aircraft operations: avg 21/day *
67% local general aviation
27% transient general aviation
7% military
* for 12-month period ending 04 March 2020

Additional Remarks

+5 FT TERRAIN 20 FT FROM RY EDGE WEST SIDE SOUTH 2/3 OF RY.
RY 19 THLD APRXLY 40 FT HIGHER THAN RY 01 THLD (SLOPES UPHILL TO THE NORTH).
RY 19 SAFETY AREA HAS +20 FT BLDGS & PARKED ACFT.
RY 19 HAS 60 FT POWER LINES 1000 FT FM THLD BOTH SIDES OF CNTRLN.
FOR CD CTC WASHINGTON ARTCC AT 703-771-3587.

Instrument Procedures

There are no published instrument procedures at W17.

Some nearby airports with instrument procedures:

KLHZ - Triangle North Executive Airport (14 nm N)
KJNX - Johnston Regional Airport (16 nm S)
KRDU - Raleigh-Durham International Airport (18 nm W)
W03 - Wilson Industrial Air Center Airport (23 nm E)
KRWI - Rocky Mount-Wilson Regional Airport (27 nm E)
 
Loc | Ops | Rwys | IFR | FBO | Links
Com | Nav | Svcs | Stats | Notes
Area around W17 (Raleigh East Airport)
 
Road maps at: MapQuest Bing Google
 
Aerial photo
WARNING: Photo may not be current or correct
Aerial photo of W17 (Raleigh East Airport)
Photo by John Romero
Photo taken 05-Mar-2011
looking south.

Do you have a better or more recent aerial photo of Raleigh East Airport that you would like to share? If so, please send us your photo.

 
Sectional chart

 
Airport distance calculator
Flying to Raleigh East Airport? Find the distance to fly.

From to W17

Sunrise and sunset
Times for 05-Jul-2020
 Local
(UTC-4)
 Zulu
(UTC)
Morning civil twilight05:3509:35
Sunrise06:0510:05
Sunset20:3200:32
Evening civil twilight21:0201:02

Current date and time
Zulu (UTC)  05-Jul-2020 20:10:43
Local (UTC-4)  05-Jul-2020 16:10:43
 
METAR
KLHZ 
14nm N 
051955Z AUTO 00000KT 10SM CLR 30/23 A3001 RMK AO2
KJNX 
16nm S 
051955Z AUTO 31003KT 10SM CLR 31/23 A2996 RMK AO2 LTG DSNT ALQS
KRDU 
17nm W 
051951Z 12007KT 8SM -TSRA BKN042CB BKN080 OVC110 23/20 A2999 RMK AO2 WSHFT 1911 SLP151 OCNL LTGICCG SE TS SE MOV SE P0038 T02330200 $
KRWI 
26nm E 
051953Z AUTO 22003KT 10SM CLR 31/22 A2997 RMK AO2 SLP147 T03060222
KHRJ 
29nm SW 
051955Z AUTO 27003KT 10SM SCT047 SCT055 32/21 A2996 RMK AO2 T03190212
TAF
KRDU 
17nm W 
051740Z 0518/0618 VRB04KT P6SM VCTS SCT045CB BKN250 TEMPO 0518/0519 VRB20G35KT TS BKN045CB BKN110 OVC250 FM052100 16004KT P6SM VCSH SCT050 SCT110 BKN250 FM060000 16003KT P6SM SCT060 BKN250
NOTAMs
Click for the latest NOTAMs
NOTAMs are issued by the DoD/FAA and will open in a separate window not controlled by AirNav.

 

 
 

FBO, Fuel Providers, and Aircraft Ground Support

  
 Business Name 
 
 Contact 
 
 Services / Description 
 
Fuel Prices
 
Comments
  
Raleigh East Flight Training 919-610-8743
[web site]
[email]
Aviation fuel, Aircraft parking (ramp or tiedown), Flight training, Aircraft rental, Internet access, Restrooms, Showers

More info about Raleigh East Flight Training
independent
Mogas
PS $3.25 
 Updated 10-Apr-2020
 
   write
PS=Pump service
Update Fuel Prices
 

Would you like to see your business listed on this page?

 If your business provides an interesting product or service to pilots, flight crews, aircraft, or users of the Raleigh East Airport, you should consider listing it here.  To start the listing process, click on the button below
 
Add a business
 

Other Pages about Raleigh East Airport

Update a link
 
Copyright © AirNav, LLC. All rights reserved. Privacy Policy  Contact